Mount Vernon, IL

9:14 AM CDT on September 28, 2016 (GMT -0500)
Mount Vernon

Weather History for KMVN - August, 2014

Change the Weather History Date:

Saturday, August 30, 2014

  Actual Average Record
Temperature  
Mean Temperature 74 °F -  
Max Temperature 78 °F 84 °F 98 °F (2013)
Min Temperature 71 °F 61 °F 57 °F (1999)
Cooling Degree Days 10    
Growing Degree Days 24 (Base 50)    
Moisture  
Dew Point 68 °F    
Average Humidity 78    
Maximum Humidity 83    
Minimum Humidity 69    
Precipitation  
Precipitation 0.00 in - - ()
Sea Level Pressure  
Sea Level Pressure 29.99 in    
Wind  
Wind Speed 10 mph (SSW)    
Max Wind Speed 16 mph    
Max Gust Speed 18 mph    
Visibility 10 miles    
Events      
Averages and records for this station are not official NWS values.
T = Trace of Precipitation, MM = Missing Value Source: NWS Daily Summary

Daily Weather History Graph

Daily Weather History Graph

Search for Another Location

Airport or City:

Trip Planner

Search our weather history database for the weather conditions in past years. The results will help you decide how hot, cold, wet, or windy it might be!

Date:

Astronomy

Aug. 30, 2014 Rise Set
Actual Time 6:23 AM CDT 7:28 PM CDT
Civil Twilight 5:56 AM CDT 7:55 PM CDT
Nautical Twilight 5:23 AM CDT 8:27 PM CDT
Astronomical Twilight 4:49 AM CDT 9:01 PM CDT
Moon 11:06 AM CDT (8/30) 10:06 PM CDT (8/30)
Length of Visible Light 13h 59m
Length of Day
13h 04m
Waxing Crescent, 23% of the Moon is Illuminated
Aug 30
Waxing Crescent
Sep 2
First Quarter
Sep 8
Full
Sep 15
Last Quarter
Sep 24
New

Hourly Weather History & Observations

Time (CDT) Temp. Dew Point Humidity Pressure Visibility Wind Dir Wind Speed Gust Speed Precip Events Conditions
12:15 AM 77.0 °F 66.2 °F 69% 29.97 in 10.0 mi SSW 16.1 mph - N/A   Clear
12:35 AM 75.2 °F 66.2 °F 73% 29.97 in 10.0 mi SSW 13.8 mph - N/A   Clear
12:55 AM 75.2 °F 64.4 °F 69% 29.98 in 10.0 mi SSW 9.2 mph - N/A   Partly Cloudy
1:15 AM 75.2 °F 66.2 °F 73% 29.98 in 10.0 mi SSW 12.7 mph 18.4 mph N/A   Partly Cloudy
1:35 AM 75.2 °F 66.2 °F 73% 29.98 in 10.0 mi SSW 10.4 mph - N/A   Scattered Clouds
1:55 AM 73.4 °F 66.2 °F 78% 29.97 in 10.0 mi SW 10.4 mph - N/A   Overcast
2:15 AM 73.4 °F 66.2 °F 78% 29.97 in 10.0 mi SSW 9.2 mph - N/A   Overcast
2:35 AM 73.4 °F 66.2 °F 78% 29.96 in 10.0 mi SW 6.9 mph - N/A   Scattered Clouds
2:55 AM 73.4 °F 66.2 °F 78% 29.97 in 10.0 mi SSW 8.1 mph - N/A   Mostly Cloudy
3:15 AM 73.4 °F 66.2 °F 78% 29.97 in 10.0 mi SSW 6.9 mph - N/A   Overcast
3:35 AM 73.4 °F 66.2 °F 78% 29.97 in 10.0 mi SSW 6.9 mph - N/A   Mostly Cloudy
3:55 AM 73.4 °F 66.2 °F 78% 29.98 in 10.0 mi SSW 6.9 mph - N/A   Mostly Cloudy
4:15 AM 73.4 °F 66.2 °F 78% 29.98 in 10.0 mi SSW 6.9 mph - N/A   Scattered Clouds
4:35 AM 73.4 °F 66.2 °F 78% 29.98 in 10.0 mi South 6.9 mph - N/A   Mostly Cloudy
4:55 AM 73.4 °F 66.2 °F 78% 29.98 in 10.0 mi South 4.6 mph - N/A   Mostly Cloudy
5:15 AM 73.4 °F 66.2 °F 78% 29.98 in 10.0 mi South 4.6 mph - N/A   Mostly Cloudy
5:35 AM 71.6 °F 66.2 °F 83% 29.99 in 10.0 mi SSW 4.6 mph - N/A   Mostly Cloudy
5:55 AM 71.6 °F 66.2 °F 83% 29.99 in 10.0 mi South 3.5 mph - N/A   Overcast
6:15 AM 71.6 °F 66.2 °F 83% 30.00 in 9.0 mi Calm Calm - N/A   Overcast
6:35 AM 71.6 °F 66.2 °F 83% 30.01 in 10.0 mi SSW 3.5 mph - N/A   Mostly Cloudy
6:55 AM 71.6 °F 66.2 °F 83% 30.01 in 10.0 mi South 4.6 mph - N/A   Overcast
7:15 AM 71.6 °F 66.2 °F 83% 30.00 in 10.0 mi South 4.6 mph - N/A   Scattered Clouds
7:35 AM 71.6 °F 66.2 °F 83% 30.01 in 5.0 mi South 6.9 mph - N/A   Mostly Cloudy
7:55 AM 71.6 °F 66.2 °F 83% 30.01 in 4.0 mi SW 10.4 mph - N/A   Mostly Cloudy
8:15 AM 71.6 °F 66.2 °F 83% 30.01 in 9.0 mi South 4.6 mph - N/A   Overcast
8:35 AM 71.6 °F 66.2 °F 83% 30.00 in 10.0 mi SSE 3.5 mph - N/A   Overcast
8:55 AM 73.4 °F 68.0 °F 83% 30.00 in 10.0 mi SE 4.6 mph - N/A   Mostly Cloudy
9:15 AM 73.4 °F 68.0 °F 83% 30.01 in 10.0 mi SSW 8.1 mph - N/A   Unknown
9:55 AM 75.2 °F 69.8 °F 83% 30.03 in 10.0 mi South 10.4 mph - N/A   Mostly Cloudy
10:15 AM 75.2 °F 68.0 °F 78% 30.03 in 10.0 mi SSW 11.5 mph 17.3 mph N/A   Mostly Cloudy
10:35 AM 75.2 °F 68.0 °F 78% 30.03 in 10.0 mi SSW 11.5 mph - N/A   Mostly Cloudy
10:55 AM 75.2 °F 69.8 °F 83% 30.03 in 10.0 mi SSW 13.8 mph - N/A   Overcast
11:15 AM 75.2 °F 69.8 °F 83% 30.02 in 10.0 mi SSW 12.7 mph 18.4 mph N/A   Scattered Clouds
11:35 AM 77.0 °F 69.8 °F 78% 30.01 in 10.0 mi SW 10.4 mph - N/A   Scattered Clouds
11:55 AM 75.2 °F 68.0 °F 78% 30.01 in 10.0 mi SSW 10.4 mph - N/A   Partly Cloudy
12:15 PM 78.8 °F 69.8 °F 74% 30.01 in 10.0 mi SSW 13.8 mph - N/A   Clear
12:35 PM 78.8 °F 69.8 °F 74% 30.01 in 10.0 mi SSW 13.8 mph 17.3 mph N/A   Clear
12:55 PM 78.8 °F 69.8 °F 74% 30.02 in 10.0 mi SSW 13.8 mph - N/A   Partly Cloudy
1:15 PM 78.8 °F 69.8 °F 74% 30.01 in 10.0 mi SSW 13.8 mph - N/A   Partly Cloudy
1:35 PM 78.8 °F 69.8 °F 74% 30.00 in 10.0 mi SSW 13.8 mph - N/A   Mostly Cloudy
1:55 PM 78.8 °F 69.8 °F 74% 30.00 in 10.0 mi South 13.8 mph - N/A   Partly Cloudy
2:15 PM 78.8 °F 69.8 °F 74% 29.98 in 10.0 mi South 9.2 mph - N/A   Clear
2:55 PM 78.8 °F 69.8 °F 74% 29.98 in 10.0 mi South 13.8 mph 17.3 mph N/A   Partly Cloudy
3:15 PM 78.8 °F 69.8 °F 74% 29.98 in 10.0 mi South 9.2 mph - N/A   Mostly Cloudy
3:35 PM 78.8 °F 69.8 °F 74% 29.98 in 10.0 mi South 10.4 mph - N/A   Mostly Cloudy
3:55 PM 78.8 °F 71.6 °F 78% 29.97 in 10.0 mi South 10.4 mph - N/A   Scattered Clouds
4:15 PM 78.8 °F 69.8 °F 74% 29.96 in 10.0 mi South 10.4 mph - N/A   Mostly Cloudy
4:35 PM 78.8 °F 71.6 °F 78% 29.96 in 10.0 mi South 9.2 mph - N/A   Mostly Cloudy
4:55 PM 78.8 °F 69.8 °F 74% 29.96 in 10.0 mi SSE 11.5 mph 16.1 mph N/A   Mostly Cloudy
5:15 PM 78.8 °F 69.8 °F 74% 29.96 in 10.0 mi SSE 6.9 mph - N/A   Mostly Cloudy
5:35 PM 78.8 °F 69.8 °F 74% 29.96 in 10.0 mi SSE 5.8 mph - N/A   Mostly Cloudy
5:55 PM 78.8 °F 69.8 °F 74% 29.96 in 10.0 mi South 8.1 mph - N/A   Overcast
6:15 PM 77.0 °F 69.8 °F 78% 29.96 in 10.0 mi South 6.9 mph - N/A   Mostly Cloudy
6:35 PM 77.0 °F 69.8 °F 78% 29.96 in 10.0 mi South 8.1 mph - N/A   Partly Cloudy
6:55 PM 75.2 °F 69.8 °F 83% 29.97 in 10.0 mi South 10.4 mph - N/A   Clear
7:15 PM 75.2 °F 66.2 °F 73% 29.97 in 10.0 mi South 9.2 mph - N/A   Clear
7:35 PM 75.2 °F 66.2 °F 73% 29.97 in 10.0 mi South 12.7 mph - N/A   Clear
7:55 PM 73.4 °F 66.2 °F 78% 29.97 in 10.0 mi South 8.1 mph - N/A   Clear
8:35 PM 73.4 °F 68.0 °F 83% 29.97 in 10.0 mi South 9.2 mph - N/A   Clear
8:55 PM 73.4 °F 66.2 °F 78% 29.98 in 10.0 mi South 6.9 mph - N/A   Clear
9:15 PM 73.4 °F 66.2 °F 78% 29.98 in 10.0 mi South 8.1 mph - N/A   Clear
9:35 PM 73.4 °F 68.0 °F 83% 29.99 in 10.0 mi South 8.1 mph - N/A   Scattered Clouds
9:55 PM 73.4 °F 68.0 °F 83% 29.99 in 10.0 mi South 8.1 mph - N/A   Mostly Cloudy
10:15 PM 73.4 °F 68.0 °F 83% 30.00 in 10.0 mi South 10.4 mph - N/A   Overcast
10:35 PM 73.4 °F 68.0 °F 83% 30.00 in 10.0 mi South 11.5 mph - N/A   Overcast
10:55 PM 73.4 °F 66.2 °F 78% 30.00 in 10.0 mi South 8.1 mph - N/A   Overcast
11:15 PM 73.4 °F 66.2 °F 78% 30.00 in 10.0 mi South 8.1 mph - N/A   Overcast
11:35 PM 73.4 °F 66.2 °F 78% 30.00 in 10.0 mi South 6.9 mph - N/A   Overcast
11:55 PM 73.4 °F 68.0 °F 83% 29.99 in 10.0 mi South 8.1 mph - N/A   Overcast